{"data":{"norad_id":60099,"intl_designator":"2024-117J","name":"STARLINK-31732","alt_names":[],"object_type":"PAYLOAD","status":"ACTIVE","operator":null,"country":"US","launch_date":"2024-06-23","launch_site_code":"AFETR","launch_vehicle":null,"mission":null,"orbit_class":"UNKNOWN","rcs_meters":null,"size_class":null,"mass_kg":null,"dimensions":null,"purposes":["comms"],"wikipedia_slug":null,"has_3d_model":false,"image_url":null,"decayed_at":null,"tle_current":{"epoch":"2026-05-24T23:44:33.018720Z","epoch_age_seconds":79120,"freshness":"FRESH","line1":"1 60099U 24117J   26144.98927105  .00000595  00000+0  32213-4 0  9990","line2":"2 60099  53.1614  42.3372 0001295  83.0683 277.0465 15.30191414108573","mean_motion":15.30191414,"eccentricity":0.0001295,"inclination_deg":53.1614,"raan_deg":42.3372,"arg_perigee_deg":83.0683,"mean_anomaly_deg":277.0465,"bstar":3.2213e-5,"rev_number":10857,"period_min":94.105873737441,"perigee_km":474.35319337466,"apogee_km":476.12821820046,"semimajor_km":6853.3777057876,"source":"CELESTRAK","updated_at":"2026-05-25T13:38:19.161479Z"}}}